User: anonymous   Login
Location: Castelbiague
(43.0361°N, 0.9246°E)
Time: 02:21:41
(UTC+00:00)
Language:

Cosmos 1346 Rocket - Orbit

View from above orbital plane
View from above orbital plane
View from above satellite
View from above satellite

Ground track
Ground track

The orbit data is extracted from the following two-line orbital elements,

1 13121U 82027B   21259.48379999  .00000462  00000-0  27443-4 0  9990
2 13121  81.1751 134.8241 0015649   3.2779 356.8545 15.09276556150759
Epoch (UTC): 16 September 2021 11:36:40
Eccentricity: 0.0015649
inclination: 81.1751°
perigee height: 527 km
apogee height: 549 km
right ascension of ascending node: 134.8241°
argument of perigee: 3.2779°
revolutions per day: 15.09276556
mean anomaly at epoch: 356.8545°
orbit number at epoch: 15075

The dashed part of the orbit path shows where the satellite is in the earth's shadow,  

DLR